NOSS 3-3 (A) - Orbit

View from above orbital plane
View from above orbital plane
View from above satellite
View from above satellite

Ground track
Ground track

The orbit data is extracted from the following two-line orbital elements,

1 28537U 05004A   13133.85077935 0.00000000  00000-0  00000-0 0    02
2 28537  63.4367  36.6895 0133000   0.5421 359.4579 13.40623655    09
Epoch (UTC): 13 May 2013 20:25:07
Eccentricity: 0.0133000
inclination: 63.4367°
perigee height: 1007 km
apogee height: 1206 km
right ascension of ascending node: 36.6895°
argument of perigee: 0.5421°
revolutions per day: 13.40623655
mean anomaly at epoch: 359.4579°
orbit number at epoch: 0

The dashed part of the orbit path shows where the satellite is in the earth's shadow,  

Developed and maintained by Chris Peat, Heavens-Above GmbH. Please read the updated FAQ before sending e-mail. Imprint. DLR